Location: Unspecified
(0.0000°N, 0.0000°E)
Time: 04:44:46
(UTC+02:00)

Daily predictions for brighter satellites

Satellite Brightness Start Highest point End
(mag) Time Altitude Azimuth Time Altitude Azimuth Time Altitude Azimuth
CZ-3 R/B 3.9 05:27:45 48° W 05:34:52 60° NW 05:44:50 10° NE
Atlas Centaur 2 2.9 05:43:20 63° N 05:43:57 66° NNE 05:50:17 10° ESE
ADEOS II 4.2 05:43:33 10° N 05:44:34 16° N 05:44:34 16° N
Ariane 42L Rocket 4.1 05:55:09 43° SSE 05:55:09 43° SSE 06:08:29 10° E
Cosmos 1153 Rocket 4.5 05:49:17 10° N 05:55:24 78° E 06:01:36 10° S
NOSS 3-2 (A) 4.0 06:01:20 58° W 06:01:59 60° WSW 06:10:00 10° S
IRAS Rocket 4.3 05:59:26 10° N 06:04:22 64° NNW 06:04:22 64° NNW
Ariane H10+ 3.7 06:05:59 36° N 06:06:19 37° NNE 06:14:15 10° E
Stardust Del rocket 4.5 06:06:34 58° NW 06:07:14 62° NNW 06:17:35 10° ENE
Cosmos 2251 Rocket 3.8 06:08:10 39° SSE 06:10:00 65° ESE 06:15:12 10° NNE
COSMOS 2455 2.7 06:11:14 64° SW 06:11:14 64° SW 06:16:45 10° S
H-2A R/B 2.4 06:11:56 52° S 06:11:56 52° S 06:24:26 10° SE
Cosmos 1340 Rocket 4.5 06:09:12 16° SSE 06:11:56 33° E 06:15:34 10° NNE
Okean 3 Rocket 4.4 06:15:10 40° N 06:15:10 40° N 06:17:59 10° N
EPKM 4.0 05:52:56 10° WNW 06:14:59 84° SSW 06:19:22 10° ESE
Okean-O 2.7 06:14:35 10° NNE 06:19:00 77° ESE 06:20:18 45° S
ASTRO E2 2.7 06:21:48 76° E 06:21:48 76° E 06:25:36 10° ENE
Cosmos 1459 Rocket 4.1 06:17:55 10° N 06:24:08 76° E 06:30:29 10° S
GPS 2-18 Rocket1 4.5 06:24:51 27° SSE 06:24:51 27° SSE 06:27:58 10° E
Ariane H10 3.6 06:24:59 40° WSW 06:27:32 70° SSE 06:56:06 10° E
Feng Yun 1-1 Rocket 4.0 06:22:20 10° N 06:27:42 81° WNW 06:31:40 19° SSW
CZ-4B R/B 4.2 06:27:15 10° N 06:30:04 44° NNW 06:30:04 44° NNW
Cosmos 1674 2.4 06:36:20 42° SSW 06:37:28 76° W 06:41:12 10° N
Ariane H10-3 3.9 06:39:02 30° SW 06:41:11 49° SSE 07:01:15 10° E
Cosmos 1766 Rocket 3.4 06:37:48 10° S 06:42:15 81° W 06:46:43 10° N
Elektron 3 3.6 06:42:56 60° W 06:43:12 64° WSW 06:46:11 10° SSE
LE-5 4.4 06:46:08 29° ENE 06:46:08 29° ENE 06:47:40 10° ESE
deb Kosmos-1763 4.4 06:47:29 10° S 06:51:14 69° ESE 06:54:59 10° NNE
USA 267 3.2 06:44:57 10° SSE 06:51:24 62° SW 06:57:50 10° NW
SL-24 R/B 4.4 06:46:46 10° N 06:51:33 63° W 06:56:39 10° SSW
ATLAS 3B CENTAUR R/B 2.4 06:52:24 14° NNW 06:52:24 14° NNW 06:53:08 10° N
Ariane 3 Deb 3.5 06:48:54 23° WSW 06:52:45 43° SSW 06:55:50 10° ESE
Meteor 1-16 Rocket 4.4 06:48:27 10° NNW 06:53:21 39° W 06:58:18 10° SSW
MTI 3.9 06:50:45 10° S 06:53:56 50° W 06:57:05 10° NNW
ARIANE 5 R/B 2.1 06:55:06 29° SW 06:55:57 39° S 07:01:18 10° E
Cosmos 2100 Rocket 4.2 06:51:38 10° NNW 06:57:24 43° W 07:03:11 10° SSW
Cosmos 1184 Rocket 2.9 06:56:14 14° SSW 06:59:00 53° W 07:02:17 10° N
Cosmos 1076 Rocket 4.4 06:58:15 24° WSW 06:59:15 26° W 07:02:47 10° NNW
SL-14 R/B 4.4 06:57:32 10° SSE 07:01:12 45° E 07:04:52 10° NNE
Meteor 1-31 Rocket 4.5 07:02:51 10° NW 07:05:06 16° WNW 07:05:06 16° WNW
OAO 2 Rocket 4.3 07:03:06 19° W 07:06:18 35° NW 07:11:04 10° NNE
Cosmos 1408 Rocket 4.1 07:02:21 10° SSW 07:06:25 36° W 07:10:31 10° NNW
Cosmos 2173 Rocket 4.4 07:00:59 10° NNW 07:06:40 39° W 07:12:18 10° SSW
Cosmos 1743 Rocket 3.6 07:04:29 10° S 07:08:52 87° E 07:13:15 10° N
IUS-17 SRM-1 3.9 07:06:52 19° W 07:09:11 60° NNW 07:21:02 10° NE
ARIANE 5 DEB (SYLDA) 3.8 07:04:35 12° WNW 07:11:14 46° N 07:14:19 10° ENE
ASC 2 Rocket 4.2 07:08:13 11° SW 07:11:40 31° SSE 07:15:33 10° E
Delta 7925 Rocket 3.5 07:11:28 13° SW 07:15:38 73° SSE 07:21:11 10° ENE
Cosmos 1908 3.4 07:18:27 10° N 07:22:20 81° E 07:26:14 10° S
Cosmos 1452 Rocket 4.2 07:17:54 10° NW 07:22:27 30° WSW 07:27:02 10° SSW
ARIANE 5 R/B 2.3 07:21:15 12° WSW 07:24:03 69° S 07:38:24 10° E
ERS-2 4.2 07:23:25 10° WNW 07:24:09 10° WNW 07:24:53 10° W
Cosmos 1864 Rocket 4.5 07:18:25 10° NNW 07:24:31 67° W 07:30:44 10° S
CENTAUR R/B 3.2 07:18:10 10° NNW 07:26:27 61° WSW 07:34:25 10° SSE
Coronas F rocket 1.0 07:30:11 10° SSW 07:31:40 27° W 07:33:08 10° NNW
Cosmos 2058 3.5 07:27:59 10° S 07:32:09 64° E 07:36:15 10° NNE
Atlas Centaur 2 3.2 07:27:14 10° W 07:33:13 31° SW 07:38:08 10° SSE
Meteor 1-11 4.3 07:30:06 10° S 07:35:44 89° W 07:41:19 10° N
